Regional Weather Roundup
Issued by NWS

Home | Current Version | Previous Version | Text Only | Print | Product List | Glossary On
Versions: 1 2 3 4 5 6 7 8 9 10 11 12 13 14 15 16 17 18 19 20 21 22 23 24 25 26 27 28 29 30 31 32 33 34 35 36 37 38 39 40 41 42 43 44 45 46 47 48 49 50
000
ASUS43 KLSX 232207
RWRMO

WEATHER SUMMARY FOR MISSOURI
NATIONAL WEATHER SERVICE SPRINGFIELD MO
500 PM CDT THU OCT 23 2014

NOTE: "FAIR" INDICATES FEW OR NO CLOUDS BELOW 12,000 FEET WITH NO
       SIGNIFICANT WEATHER AND/OR OBSTRUCTIONS TO VISIBILITY.
       CURRENT SKY AND/OR WEATHER CONDITIONS ARE NOT AVAILABLE FOR
       CHILLICOTHE AND FARMINGTON.

MOZ001>031-035>038-043-044-053-054-232300-
...NORTHERN AND WESTERN MISSOURI...

CITY           SKY/WX    TMP DP  RH WIND       PRES   REMARKS
KANSAS CTY INT PTSUNNY   64  61  90 SW8       30.04F
KANSAS C DTWN  PTSUNNY   66  61  84 S8        30.04F
LEE`S SUMMIT   CLOUDY    64  59  83 SW8       30.06F
ST JOSEPH      SUNNY     72  58  61 S6        30.02F
CHILLICOTHE      N/A     65  59  81 S5        30.06S
KIRKSVILLE     CLOUDY    65  58  78 SW6       30.05S

$$
MOZ066>068-077>081-088>096-101>105-232300-
...SOUTHWEST MISSOURI...

CITY           SKY/WX    TMP DP  RH WIND       PRES   REMARKS
SPRINGFIELD    CLOUDY    62  56  80 S10       30.10S
JOPLIN         CLOUDY    61  57  87 S7        30.11S

$$
MOZ032>034-039>042-045>050-055>058-069>072-232300-
...CENTRAL MISSOURI...

CITY           SKY/WX    TMP DP  RH WIND       PRES   REMARKS
COLUMBIA       PTSUNNY   62  53  72 S7        30.08S
JEFFERSON CITY PTSUNNY   64  51  62 VRB3      30.08S
ROLLA          PTSUNNY   61  49  64 S8        30.09S
SEDALIA        CLOUDY    67  57  70 SW12      30.08S
WHITEMAN AFB   CLOUDY    66  58  75 SW9       30.06S
OSAGE BEACH    PTSUNNY   63  52  67 S7        30.10S

$$
MOZ051-052-059>065-232300-
...EAST CENTRAL MISSOURI...

CITY           SKY/WX    TMP DP  RH WIND       PRES   REMARKS
ST LOUIS INTL  CLOUDY    64  46  52 S6        30.10F
SPIRIT OF STL  CLOUDY    65  47  52 CALM      30.08F
ST CHARLES     CLOUDY    63  47  55 S8        30.08F

$$
MOZ072>076-082>087-097>100-106>115-232300-
...SOUTH CENTRAL AND SOUTHEAST MISSOURI...

CITY           SKY/WX    TMP DP  RH WIND       PRES   REMARKS
CAPE GIRARDEAU CLOUDY    57  45  64 W3        30.14F
FARMINGTON     CLOUDY    61  45  55 S8        30.14R
POPLAR BLUFF   CLOUDY    59  44  57 SW7       30.15R
WEST PLAINS    PTSUNNY   58  45  62 SW5       30.15F

$$



USA.gov is the U.S. government's official web portal to all federal, state and local government web resources and services.